ON7CFI Weather Reports


Display with metric or nautical units.
time (UTC)temp
F
wind
direction
speed
MPH
gust
MPH
rain 1hr
in
rain 24hr
in
rain mn
in
humidity
%
barometer
mb
20260507060503 49 63 1.0 2.0 0.00 0.09 0.00 87 1014.3
20260507060003 49 63 0.0 2.0 0.00 0.09 0.00 88 1014.2
20260507055504 49 63 0.0 2.0 0.00 0.09 0.00 88 1014.2
20260507055218 49 63 0.0 1.0 0.00 0.09 0.00 88 1014.2
20260507054503 48 63 0.0 2.0 0.00 0.09 0.00 89 1014.0
20260507054003 48 63 0.0 2.0 0.00 0.09 0.00 89 1014.0
20260507053503 48 63 0.0 1.0 0.00 0.10 0.00 90 1013.9
20260507053004 48 63 0.0 1.0 0.00 0.10 0.00 90 1014.0
20260507052503 48 63 0.0 1.0 0.00 0.11 0.00 91 1014.1
20260507052003 48 63 0.0 1.0 0.00 0.11 0.00 90 1014.0
20260507051503 48 0 0.0 0.0 0.00 0.11 0.00 91 1013.9
20260507051003 48 63 0.0 1.0 0.00 0.11 0.00 91 1013.8
20260507050503 48 63 0.0 1.0 0.00 0.11 0.00 92 1013.8
20260507050003 47 63 0.0 1.0 0.00 0.11 0.00 92 1013.8
20260507045717 47 63 0.0 1.0 0.00 0.11 0.00 92 1013.8
20260507045003 47 63 0.0 1.0 0.00 0.12 0.00 91 1013.7
20260507044717 47 63 0.0 1.0 0.00 0.12 0.00 91 1013.6
20260507044003 47 0 0.0 0.0 0.00 0.12 0.00 91 1013.7
20260507043503 47 63 0.0 1.0 0.00 0.12 0.00 91 1013.6
20260507043003 47 63 0.0 1.0 0.00 0.13 0.00 91 1013.5
20260507042504 47 63 0.0 1.0 0.00 0.13 0.00 92 1013.5
20260507042003 47 63 0.0 1.0 0.00 0.13 0.00 92 1013.4
20260507041503 48 0 0.0 0.0 0.00 0.13 0.00 92 1013.5
20260507041004 48 63 0.0 1.0 0.00 0.14 0.00 93 1013.4
20260507040504 48 63 0.0 1.0 0.00 0.14 0.00 93 1013.4
20260507040003 48 63 0.0 1.0 0.00 0.15 0.00 93 1013.4
20260507035503 48 63 0.0 1.0 0.00 0.15 0.00 92 1013.3
20260507035003 48 63 0.0 1.0 0.00 0.16 0.00 92 1013.2
20260507034503 48 0 0.0 0.0 0.00 0.16 0.00 92 1013.3
20260507034217 48 63 0.0 1.0 0.00 0.16 0.00 92 1013.3
20260507033503 48 63 0.0 1.0 0.00 0.17 0.00 92 1013.2
20260507033003 48 0 0.0 0.0 0.00 0.17 0.00 92 1013.2
20260507032504 48 0 0.0 0.0 0.00 0.17 0.00 92 1013.2
20260507032003 48 63 0.0 1.0 0.00 0.17 0.00 92 1013.3
20260507031718 48 63 0.0 1.0 0.00 0.17 0.00 91 1013.2
20260507031003 48 63 0.0 1.0 0.00 0.17 0.00 91 1013.1
20260507030718 48 63 0.0 1.0 0.00 0.17 0.00 92 1013.1
20260507030003 48 63 0.0 1.0 0.00 0.18 0.00 92 1013.0
20260507025503 48 63 0.0 2.0 0.00 0.18 0.00 92 1013.1
20260507025003 48 63 0.0 2.0 0.00 0.18 0.00 92 1013.1
20260507024503 48 63 0.0 1.0 0.00 0.18 0.00 93 1013.1
20260507024217 48 63 0.0 1.0 0.00 0.18 0.00 93 1013.1
20260507023503 48 63 0.0 1.0 0.00 0.19 0.00 93 1013.0
20260507023003 48 63 0.0 1.0 0.00 0.19 0.00 94 1013.0
20260507022503 48 0 0.0 0.0 0.00 0.19 0.00 94 1012.9
20260507022003 48 0 0.0 0.0 0.00 0.20 0.00 93 1012.8
20260507021503 48 0 0.0 0.0 0.00 0.20 0.00 93 1012.8
20260507021003 48 0 0.0 0.0 0.00 0.20 0.00 93 1012.7
20260507020718 48 0 0.0 0.0 0.00 0.20 0.00 93 1012.8
20260507020217 48 0 0.0 0.0 0.00 0.20 0.00 93 1012.7
20260507015503 48 0 0.0 0.0 0.00 0.21 0.00 93 1012.6
20260507015003 48 0 0.0 0.0 0.00 0.21 0.00 93 1012.6
20260507014503 48 0 0.0 0.0 0.00 0.22 0.00 93 1012.7
20260507014004 48 0 0.0 0.0 0.00 0.22 0.00 93 1012.7
20260507013503 48 0 0.0 0.0 0.00 0.23 0.00 93 1012.7
20260507013003 48 0 0.0 0.0 0.00 0.23 0.00 93 1012.7
20260507012503 48 0 0.0 0.0 0.00 0.24 0.00 92 1012.8
20260507012003 48 0 0.0 0.0 0.00 0.24 0.00 92 1012.7
20260507011503 48 0 0.0 0.0 0.00 0.24 0.00 92 1012.7
20260507010717 48 63 0.0 1.0 0.00 0.25 0.00 92 1012.7
20260507010004 48 63 0.0 1.0 0.00 0.27 0.00 92 1012.6
20260507005503 48 0 0.0 0.0 0.00 0.28 0.00 91 1012.7
20260507005003 48 0 0.0 0.0 0.00 0.28 0.00 91 1012.7
20260507004503 48 0 0.0 0.0 0.00 0.28 0.00 91 1012.6
20260507004003 48 63 0.0 1.0 0.00 0.29 0.00 91 1012.7
20260507003503 48 63 0.0 1.0 0.00 0.30 0.00 91 1012.7
20260507003218 48 63 0.0 1.0 0.00 0.31 0.00 91 1012.6
20260507002503 48 0 0.0 0.0 0.00 0.32 0.00 90 1012.6
20260507002003 48 0 0.0 0.0 0.00 0.33 0.00 90 1012.6
20260507001503 48 0 0.0 0.0 0.00 0.34 0.00 90 1012.6
20260507001003 48 63 0.0 1.0 0.00 0.35 0.00 90 1012.6
20260507000503 48 63 0.0 2.0 0.00 0.35 0.00 89 1012.7
20260507000009 48 63 0.0 2.0 0.00 0.36 0.00 89 1012.6
20260506235503 48 63 0.0 2.0 0.00 0.37 0.00 90 1012.7
20260506235218 48 63 0.0 2.0 0.00 0.38 0.00 90 1012.6
20260506234504 48 63 1.0 2.0 0.00 0.39 0.00 90 1012.6
20260506234218 48 63 0.0 2.0 0.00 0.39 0.00 90 1012.5
20260506233503 48 40 1.0 3.0 0.00 0.40 0.00 90 1012.5
20260506233003 48 15 1.0 3.0 0.00 0.41 0.00 90 1012.4
20260506232503 48 343 1.0 3.0 0.00 0.41 0.00 90 1012.4
20260506232218 48 337 0.0 2.0 0.00 0.42 0.00 90 1012.4
20260506231504 48 317 0.0 1.0 0.00 0.43 0.00 90 1012.2
20260506231003 48 317 0.0 1.0 0.00 0.43 0.00 90 1012.2
20260506230717 48 317 0.0 1.0 0.00 0.44 0.00 90 1012.2
20260506230003 48 317 0.0 2.0 0.00 0.45 0.00 90 1012.2
20260506225503 48 317 0.0 1.0 0.00 0.46 0.00 90 1012.1
20260506225003 48 314 0.0 2.0 0.00 0.46 0.00 90 1012.0
20260506224503 48 314 0.0 2.0 0.00 0.46 0.00 90 1012.0
20260506224218 48 318 0.0 3.0 0.00 0.46 0.00 90 1011.9
20260506223503 48 48 1.0 3.0 0.00 0.47 0.00 90 1012.0
20260506223003 48 77 1.0 3.0 0.00 0.48 0.00 90 1011.9
20260506222503 48 76 1.0 3.0 0.00 0.49 0.00 90 1011.8
20260506222003 48 64 1.0 3.0 0.00 0.50 0.00 90 1011.8
20260506221504 48 49 1.0 3.0 0.00 0.50 0.00 90 1011.8
20260506221217 48 48 1.0 2.0 0.00 0.51 0.00 90 1011.8
20260506220508 48 69 0.0 2.0 0.00 0.52 0.00 90 1011.7
20260506220004 48 69 1.0 4.0 0.00 0.53 0.00 90 1011.8
20260506215503 48 71 0.0 4.0 0.00 0.55 0.53 90 1011.7
20260506215004 48 74 0.0 2.0 0.00 0.57 0.53 90 1011.7
20260506214503 48 69 1.0 2.0 0.00 0.58 0.53 90 1011.6
20260506214003 48 67 1.0 4.0 0.00 0.59 0.53 90 1011.6
20260506213503 48 78 1.0 4.0 0.00 0.60 0.53 90 1011.6
20260506213003 48 87 0.0 3.0 0.00 0.60 0.53 90 1011.6
20260506212503 48 78 1.0 3.0 0.00 0.61 0.53 90 1011.6
20260506212003 48 66 1.0 2.0 0.00 0.64 0.53 90 1011.6
20260506211503 48 61 1.0 3.0 0.00 0.65 0.53 90 1011.6
20260506211003 48 63 1.0 3.0 0.00 0.67 0.53 90 1011.5
20260506210503 48 68 0.0 2.0 0.00 0.68 0.53 90 1011.4
20260506210004 48 69 0.0 1.0 0.00 0.69 0.53 90 1011.3
20260506205503 48 63 1.0 3.0 0.00 0.70 0.53 89 1011.4
20260506205217 48 66 1.0 3.0 0.00 0.70 0.53 89 1011.4
20260506204503 49 77 1.0 3.0 0.00 0.72 0.53 88 1011.2
20260506204003 49 68 1.0 6.0 0.00 0.72 0.53 88 1011.2
20260506203503 49 59 2.0 6.0 0.00 0.73 0.53 87 1011.1
20260506203003 49 57 2.0 5.0 0.00 0.75 0.53 86 1011.1
20260506202503 49 62 2.0 8.0 0.00 0.76 0.53 86 1011.1
20260506202004 50 64 1.0 8.0 0.00 0.76 0.53 85 1011.1
20260506201503 50 62 1.0 4.0 0.00 0.78 0.53 84 1011.2
20260506201217 50 62 1.0 4.0 0.00 0.78 0.53 84 1011.1
20260506200503 50 81 1.0 3.0 0.00 0.80 0.53 84 1011.1
20260506200003 50 66 1.0 5.0 0.00 0.80 0.53 83 1011.1
20260506195503 50 55 1.0 5.0 0.00 0.81 0.53 83 1011.0
20260506195003 50 59 1.0 4.0 0.00 0.82 0.53 83 1010.9
20260506194718 50 59 1.0 4.0 0.00 0.82 0.53 83 1010.9
20260506194008 50 75 1.0 4.0 0.00 0.83 0.53 82 1010.9
20260506193504 50 77 1.0 3.0 0.00 0.84 0.53 82 1010.8
20260506193004 50 68 0.0 2.0 0.00 0.85 0.53 82 1010.8
20260506192503 50 64 1.0 3.0 0.00 0.85 0.53 82 1010.7
20260506192003 50 66 1.0 3.0 0.00 0.86 0.53 81 1010.5
20260506191503 50 65 1.0 3.0 0.00 0.87 0.53 81 1010.5
20260506191218 50 65 1.0 3.0 0.00 0.87 0.53 81 1010.5
20260506190503 50 73 1.0 3.0 0.00 0.88 0.53 80 1010.3
20260506190004 50 77 1.0 2.0 0.00 0.89 0.53 80 1010.3
20260506185503 50 80 1.0 2.0 0.00 0.90 0.53 79 1010.2
20260506185003 50 70 1.0 5.0 0.00 0.91 0.53 78 1010.2
20260506184509 51 76 2.0 5.0 0.00 0.91 0.53 78 1010.2
20260506184003 51 81 2.0 5.0 0.00 0.91 0.53 77 1010.2
20260506183504 52 74 2.0 5.0 0.00 0.92 0.53 77 1010.1
20260506183003 52 73 2.0 5.0 0.00 0.92 0.53 76 1010.0
20260506182503 52 74 1.0 4.0 0.00 0.92 0.53 75 1010.0
20260506182003 52 79 1.0 4.0 0.00 0.92 0.53 75 1009.9
20260506181503 53 73 1.0 4.0 0.00 0.93 0.53 74 1009.8
20260506181003 53 65 2.0 4.0 0.00 0.93 0.53 72 1009.8
20260506180503 53 66 2.0 6.0 0.00 0.93 0.53 72 1009.7
20260506180004 54 70 1.0 6.0 0.00 0.93 0.53 72 1009.6
20260506175503 54 69 2.0 7.0 0.00 0.94 0.53 72 1009.5
20260506175218 54 66 2.0 7.0 0.00 0.94 0.53 71 1009.3
20260506174717 54 69 2.0 7.0 0.00 0.94 0.53 72 1009.3
20260506174003 54 61 2.0 7.0 0.00 0.94 0.53 73 1009.2
20260506173504 54 61 2.0 7.0 0.00 0.94 0.53 72 1009.2
20260506173003 55 65 2.0 7.0 0.00 0.94 0.53 72 1009.1
20260506172503 55 68 2.0 7.0 0.00 0.94 0.53 72 1009.2
20260506172218 55 72 2.0 7.0 0.00 0.94 0.53 73 1009.2
20260506171503 55 71 1.0 4.0 0.00 0.94 0.53 74 1009.1
20260506171003 55 73 1.0 3.0 0.00 0.94 0.53 75 1009.1
20260506170503 55 79 1.0 4.0 0.00 0.94 0.53 75 1009.1
20260506170003 55 83 1.0 4.0 0.00 0.94 0.53 75 1009.0
20260506165503 55 73 1.0 3.0 0.00 0.94 0.53 75 1009.0
20260506165004 55 58 1.0 3.0 0.00 0.94 0.53 75 1008.9
20260506164503 55 70 1.0 3.0 0.00 0.94 0.53 74 1008.9
20260506164003 55 81 2.0 7.0 0.00 0.94 0.53 73 1008.8
20260506163503 55 78 2.0 7.0 0.00 0.94 0.53 73 1008.8
20260506163217 55 84 2.0 7.0 0.00 0.94 0.53 73 1008.8
20260506162503 56 99 1.0 4.0 0.00 0.94 0.53 73 1008.8
20260506162003 56 87 2.0 5.0 0.00 0.94 0.53 72 1008.8
20260506161503 56 80 2.0 5.0 0.00 0.94 0.53 71 1008.8
20260506161003 56 76 2.0 8.0 0.00 0.94 0.53 71 1008.7
20260506160503 57 78 2.0 8.0 0.00 0.94 0.53 71 1008.8
20260506160004 57 102 2.0 6.0 0.00 0.94 0.53 71 1008.7
20260506155504 57 99 2.0 6.0 0.00 0.94 0.53 73 1008.7
20260506155003 57 85 3.0 6.0 0.00 0.94 0.53 73 1008.6
20260506154503 57 86 2.0 6.0 0.00 0.94 0.53 73 1008.6
20260506154003 56 87 2.0 4.0 0.00 0.94 0.53 74 1008.7
20260506153503 56 81 2.0 6.0 0.00 0.94 0.53 75 1008.6
20260506153003 56 75 1.0 6.0 0.00 0.94 0.53 74 1008.6
20260506152718 56 76 1.0 6.0 0.00 0.94 0.53 74 1008.7
20260506152003 56 81 2.0 4.0 0.00 0.94 0.53 70 1008.6
20260506151503 56 67 2.0 7.0 0.00 0.94 0.53 69 1008.6
20260506151217 57 58 2.0 7.0 0.00 0.94 0.53 69 1008.6
20260506150503 57 63 2.0 5.0 0.00 0.94 0.53 70 1008.5
20260506150004 57 57 2.0 5.0 0.00 0.94 0.53 71 1008.5
20260506145503 57 59 2.0 5.0 0.00 0.94 0.53 70 1008.4
20260506145003 57 69 1.0 4.0 0.00 0.94 0.53 72 1008.4
20260506144503 57 57 1.0 3.0 0.00 0.94 0.53 71 1008.4
20260506144217 57 55 1.0 4.0 0.00 0.94 0.53 73 1008.4
20260506143503 57 66 1.0 4.0 0.00 0.94 0.53 74 1008.6
20260506143003 57 69 2.0 5.0 0.00 0.94 0.53 73 1008.6
20260506142503 57 72 3.0 7.0 0.00 0.94 0.53 71 1008.6
20260506142004 57 50 3.0 9.0 0.00 0.94 0.53 70 1008.6
20260506141503 58 352 2.0 9.0 0.00 0.94 0.53 71 1008.6
20260506141218 58 349 2.0 5.0 0.00 0.94 0.53 71 1008.6
20260506140503 58 16 2.0 5.0 0.00 0.94 0.53 73 1008.7
20260506140003 58 16 2.0 4.0 0.00 0.94 0.53 75 1008.7
20260506135717 58 350 2.0 4.0 0.00 0.94 0.53 75 1008.6
20260506135218 57 314 2.0 5.0 0.00 0.94 0.53 75 1008.6
20260506134503 56 311 2.0 8.0 0.00 0.94 0.53 77 1008.5
20260506134003 56 50 1.0 6.0 0.00 0.94 0.53 77 1008.6
20260506133503 56 44 2.0 6.0 0.00 0.94 0.53 76 1008.5
20260506133003 56 360 2.0 7.0 0.00 0.94 0.53 77 1008.6
20260506132503 57 12 2.0 7.0 0.00 0.94 0.53 76 1008.6
20260506132003 57 49 2.0 6.0 0.00 0.94 0.53 77 1008.5
20260506131503 56 54 2.0 6.0 0.00 0.94 0.53 77 1008.5
20260506131003 55 344 2.0 4.0 0.00 0.94 0.53 80 1008.6
20260506130503 55 350 2.0 7.0 0.00 0.94 0.53 80 1008.6
20260506130003 55 36 1.0 7.0 0.00 0.94 0.53 81 1008.6
20260506125503 54 58 2.0 8.0 0.00 0.94 0.53 83 1008.5
20260506125003 54 74 2.0 8.0 0.00 0.94 0.53 83 1008.5
20260506124503 54 75 1.0 4.0 0.00 0.94 0.53 86 1008.5
20260506124003 54 67 2.0 4.0 0.00 0.94 0.53 85 1008.4
20260506123508 54 63 1.0 4.0 0.00 0.94 0.53 85 1008.4
20260506123004 54 36 1.0 4.0 0.00 0.94 0.53 84 1008.4
20260506122503 54 360 1.0 3.0 0.00 0.94 0.53 84 1008.3
20260506122218 54 7 0.0 3.0 0.00 0.94 0.53 85 1008.3
20260506121717 55 58 1.0 7.0 0.00 0.94 0.53 84 1008.3
20260506121003 55 62 1.0 7.0 0.00 0.94 0.53 84 1008.3
20260506120503 54 71 2.0 4.0 0.00 0.94 0.53 85 1008.2
20260506120003 54 65 1.0 4.0 0.00 0.94 0.53 86 1008.2
20260506115503 54 355 0.0 3.0 0.00 0.94 0.53 88 1008.3
20260506115003 53 84 0.0 3.0 0.00 0.94 0.53 87 1008.2
20260506114503 53 343 1.0 3.0 0.00 0.94 0.53 86 1008.2
20260506114218 53 357 1.0 3.0 0.00 0.94 0.53 85 1008.2
20260506113503 54 36 1.0 3.0 0.00 0.94 0.53 86 1008.2
20260506113003 54 37 1.0 3.0 0.00 0.94 0.53 85 1008.1
20260506112503 54 70 2.0 4.0 0.00 0.94 0.53 85 1008.2
20260506112003 54 82 2.0 5.0 0.00 0.94 0.53 84 1008.2
20260506111503 54 83 2.0 5.0 0.00 0.94 0.53 85 1008.3
20260506111003 54 75 2.0 7.0 0.00 0.94 0.53 88 1008.3
20260506110503 53 50 2.0 7.0 0.00 0.94 0.53 89 1008.3
20260506110003 53 349 2.0 7.0 0.00 0.94 0.53 90 1008.4
20260506105718 52 320 2.0 5.0 0.00 0.94 0.53 91 1008.4
20260506105003 52 2 2.0 5.0 0.00 0.94 0.53 92 1008.5
20260506104503 52 59 2.0 7.0 0.00 0.94 0.53 92 1008.4
20260506104003 52 62 2.0 7.0 0.00 0.94 0.53 92 1008.4
20260506103503 52 63 1.0 5.0 0.00 0.94 0.53 94 1008.4
20260506103003 52 25 2.0 5.0 0.00 0.94 0.53 94 1008.4
20260506102503 51 347 2.0 4.0 0.00 0.94 0.53 94 1008.4
20260506102003 51 62 2.0 4.0 0.00 0.94 0.53 94 1008.4
20260506101718 51 67 2.0 5.0 0.00 0.94 0.53 94 1008.4
20260506101003 51 348 2.0 5.0 0.00 0.94 0.53 95 1008.3
20260506100503 51 7 2.0 6.0 0.00 0.94 0.53 95 1008.2
20260506100003 50 59 2.0 6.0 0.00 0.94 0.53 95 1008.2
20260506095503 50 59 2.0 4.0 0.00 0.94 0.53 96 1008.2
20260506095003 50 64 2.0 9.0 0.00 0.94 0.53 96 1008.2
20260506094503 50 60 2.0 9.0 0.00 0.94 0.53 96 1008.3
20260506094003 50 44 2.0 5.0 0.01 0.94 0.53 96 1008.1
20260506093503 49 60 2.0 7.0 0.01 0.94 0.53 97 1008.1
20260506093003 49 74 2.0 7.0 0.01 0.94 0.53 97 1008.1
20260506092503 49 73 2.0 6.0 0.01 0.94 0.53 97 1008.0
20260506092004 49 66 2.0 4.0 0.01 0.94 0.53 97 1008.0
20260506091503 48 63 2.0 4.0 0.01 0.94 0.53 97 1008.0
20260506091219 48 47 1.0 4.0 0.01 0.94 0.53 97 1008.0
20260506090503 48 58 2.0 10.0 0.01 0.94 0.53 97 1007.9
20260506090003 48 48 2.0 10.0 0.02 0.94 0.53 97 1007.9
20260506085503 48 44 2.0 5.0 0.02 0.94 0.53 97 1007.9
20260506085003 48 70 2.0 8.0 0.02 0.94 0.53 97 1007.8
20260506084503 48 73 2.0 8.0 0.02 0.95 0.53 97 1007.7
20260506084003 48 68 2.0 6.0 0.02 0.94 0.52 97 1007.8
20260506083503 48 56 2.0 6.0 0.02 0.94 0.52 97 1007.7
20260506083003 48 57 2.0 8.0 0.02 0.94 0.52 97 1007.7
20260506082504 48 76 2.0 8.0 0.03 0.94 0.52 97 1007.6
20260506082003 48 78 3.0 5.0 0.03 0.94 0.52 97 1007.6
20260506081503 48 71 3.0 8.0 0.03 0.94 0.52 97 1007.6
20260506081218 48 67 3.0 8.0 0.03 0.94 0.52 97 1007.5
20260506080503 48 70 3.0 7.0 0.04 0.94 0.52 97 1007.6
20260506073503 48 65 2.0 8.0 0.04 0.92 0.50 97 1007.4
20260506073003 48 19 1.0 3.0 0.04 0.92 0.50 97 1007.4
20260506072508 48 17 2.0 8.0 0.04 0.91 0.49 97 1007.3
20260506072003 48 341 2.0 8.0 0.04 0.91 0.49 97 1007.3
20260506071503 48 319 2.0 8.0 0.05 0.91 0.49 97 1007.3
20260506071003 48 356 2.0 5.0 0.05 0.91 0.49 97 1007.3
20260506070503 47 349 2.0 7.0 0.04 0.91 0.48 97 1007.3
20260506062503 47 337 1.0 4.0 0.03 0.87 0.45 97 1006.9
20260506062003 47 4 1.0 4.0 0.03 0.88 0.45 97 1006.9
20260506061503 47 21 1.0 4.0 0.02 0.87 0.44 97 1006.8
20260506061003 47 326 1.0 5.0 0.02 0.88 0.44 97 1006.9